Preview of NWS' New Version of Forecast
This preview is not operational and should not be used for support decisions.

Regional Weather Roundup (RWR)

Issued by National Weather Service (NWS)

                            
000
ASPQ40 PGUM 211010
RWRPQ 
WEATHER ROUNDUP FOR THE MARIANAS AND MICRONESIA
NATIONAL WEATHER SERVICE TIYAN GU
800 PM CHST WED AUG 21 2019

GUZ001>004-211100-
MARIANA ISLANDS-
  
CITY           SKY/WX    TMP DP  RH WIND       PRES   REMARKS
GUAM AIRPORT   CLEAR     82  75  78 N7        29.86R                  
ANDERSEN AFB   PTCLDY    82  73  74 NE8       29.87R                  
ROTA AIRPORT   PTCLDY    81  73  78 VRB3      29.82R                  
TINIAN AP      PTCLDY    82  77  83 E6        29.84R HX  91           
SAIPAN AP      CLEAR     82  75  78 NE7       29.85R                  

$$

PMZ161-211100-
REPUBLIC OF PALAU-
  
CITY           SKY/WX    TMP DP  RH WIND       PRES   REMARKS
KOROR AP       MOCLDY    81  75  83 S5        29.81R                  
KOROR WSO      NOT AVBL                                               

$$

PMZ171>174-211100-
FEDERATED STATES OF MICRONESIA-
  
CITY           SKY/WX    TMP DP  RH WIND       PRES   REMARKS
YAP AIRPORT    MOCLDY    81  75  83 SW9       29.81R                  
CHUUK AP       CLOUDY    84  81  89 VRB7      29.76R HX  98           
POHNPEI AP     NOT AVBL                                               
POHNPEI WSO    PTCLDY    81  75  83 SE2       29.81R                  
KOSRAE AP      NOT AVBL                                               

$$

PMZ181-211100-
REPUBLIC OF THE MARSHALL ISLANDS-
  
CITY           SKY/WX    TMP DP  RH WIND       PRES   REMARKS
KWAJALEIN AP   CLEAR     82  77  83 SE6       29.83S HX  91           
MAJURO AP      NOT AVBL                                               
MAJURO WSO     MOCLDY    82  77  83 E8        29.83R HX  91           

$$